• En España
  • Lista de países
  • Para 7 días
  • Temperatura del agua
  • Mapa Satelital
  • El tiempo en el mapa
  • Informadores
  • user-avatar
    Iniciar sesión

    Tiempo cada hora Batina

    Hoy, 16 Octubre, Martes

    Tiempo Temperatura Precipitaciones Viento Presión Humedad
    00:00 +17°C° 0.2 mm 2 mps 670 mmHg 71%
    01:00 +17°C° 0.1 mm 2 mps 670 mmHg 71%
    02:00 +17°C° 0.1 mm 2 mps 669 mmHg 71%
    03:00 +17°C° 0.1 mm 2 mps 669 mmHg 71%
    04:00 +16°C° 1.7 mm 3 mps 669 mmHg 73%
    05:00 +16°C° 1.7 mm 3 mps 669 mmHg 75%
    06:00 +14°C° 1.7 mm 4 mps 669 mmHg 77%
    07:00 +15°C° 0.8 mm 4 mps 670 mmHg 71%
    08:00 +17°C° 0.8 mm 4 mps 670 mmHg 66%
    09:00 +18°C° 0.8 mm 4 mps 671 mmHg 61%
    10:00 +18°C° 0.7 mm 4 mps 670 mmHg 59%
    11:00 +19°C° 0.7 mm 4 mps 670 mmHg 58%
    12:00 +19°C° 0.7 mm 4 mps 670 mmHg 57%
    13:00 +20°C° 0.2 mm 4 mps 670 mmHg 54%
    14:00 +20°C° 0.2 mm 4 mps 670 mmHg 51%
    15:00 +20°C° 0.2 mm 4 mps 669 mmHg 49%
    16:00 +20°C° 0.3 mm 3 mps 669 mmHg 54%
    17:00 +19°C° 0.3 mm 3 mps 669 mmHg 58%
    18:00 +18°C° 0.3 mm 2 mps 669 mmHg 63%
    19:00 +17°C° 0.2 mm 2 mps 669 mmHg 65%
    20:00 +17°C° 0.2 mm 2 mps 669 mmHg 68%
    21:00 +17°C° 0.2 mm 2 mps 669 mmHg 70%
    22:00 +16°C° 0.3 mm 2 mps 669 mmHg 72%
    23:00 +16°C° 0.3 mm 2 mps 669 mmHg 73%

    Mañana, 17 Octubre, Miércoles

    Tiempo Temperatura Precipitaciones Viento Presión Humedad
    00:00 +16°C° 0.3 mm 2 mps 668 mmHg 75%
    01:00 +15°C° 0.8 mm 2 mps 668 mmHg 77%
    02:00 +15°C° 0.8 mm 2 mps 668 mmHg 80%
    03:00 +15°C° 0.8 mm 2 mps 667 mmHg 82%
    04:00 +15°C° 1.1 mm 2 mps 667 mmHg 83%
    05:00 +14°C° 1.1 mm 2 mps 667 mmHg 83%
    06:00 +14°C° 1.1 mm 2 mps 667 mmHg 84%
    07:00 +14°C° 1 mm 3 mps 667 mmHg 82%
    08:00 +14°C° 1 mm 3 mps 667 mmHg 80%
    09:00 +16°C° 1 mm 3 mps 667 mmHg 78%
    10:00 +17°C° 0.2 mm 4 mps 667 mmHg 73%
    11:00 +17°C° 0.2 mm 5 mps 666 mmHg 69%
    12:00 +19°C° 0.2 mm 5 mps 666 mmHg 64%
    13:00 +17°C° 1.5 mm 5 mps 666 mmHg 65%
    14:00 +17°C° 1.5 mm 5 mps 665 mmHg 66%
    15:00 +17°C° 1.5 mm 5 mps 665 mmHg 67%
    16:00 +16°C° 1.9 mm 5 mps 664 mmHg 71%
    17:00 +16°C° 1.9 mm 5 mps 664 mmHg 74%
    18:00 +15°C° 1.9 mm 5 mps 664 mmHg 77%
    19:00 +15°C° 1.1 mm 5 mps 664 mmHg 78%
    20:00 +15°C° 1.1 mm 5 mps 664 mmHg 78%
    21:00 +15°C° 1.1 mm 5 mps 664 mmHg 79%
    22:00 +14°C° 0.1 mm 5 mps 664 mmHg 80%
    23:00 +14°C° 0.1 mm 5 mps 664 mmHg 82%

    Pasado mañana, 18 Octubre, Jueves

    Tiempo Temperatura Precipitaciones Viento Presión Humedad
    00:00 +14°C° 0.1 mm 4 mps 663 mmHg 84%
    01:00 +14°C° 0.2 mm 4 mps 663 mmHg 84%
    02:00 +14°C° 0.2 mm 4 mps 663 mmHg 84%
    03:00 +13°C° 0.2 mm 4 mps 662 mmHg 84%
    04:00 +13°C° 0.2 mm 4 mps 662 mmHg 84%
    05:00 +13°C° 0.2 mm 4 mps 662 mmHg 84%
    06:00 +13°C° 0.2 mm 3 mps 662 mmHg 84%
    07:00 +14°C° 0 mm 3 mps 663 mmHg 80%
    08:00 +14°C° 0 mm 3 mps 663 mmHg 76%
    09:00 +16°C° 0 mm 3 mps 663 mmHg 73%
    10:00 +17°C° 0 mm 3 mps 663 mmHg 70%
    11:00 +17°C° 0 mm 2 mps 663 mmHg 67%
    12:00 +18°C° 0 mm 2 mps 663 mmHg 63%
    13:00 +18°C° 0 mm 2 mps 663 mmHg 63%
    14:00 +18°C° 0 mm 2 mps 663 mmHg 62%
    15:00 +19°C° 0 mm 2 mps 663 mmHg 61%
    16:00 +18°C° 0 mm 2 mps 664 mmHg 64%
    17:00 +18°C° 0 mm 2 mps 664 mmHg 67%
    18:00 +18°C° 0 mm 1 mps 664 mmHg 70%
    19:00 +18°C° 0 mm 1 mps 664 mmHg 72%
    20:00 +16°C° 0 mm 1 mps 665 mmHg 74%
    21:00 +16°C° 0 mm 1 mps 665 mmHg 76%
    22:00 +16°C° 0 mm 1 mps 665 mmHg 78%
    23:00 +15°C° 0 mm 1 mps 665 mmHg 80%

    19 Octubre, Viernes

    Tiempo Temperatura Precipitaciones Viento Presión Humedad
    00:00 +14°C° 0 mm 0 mps 665 mmHg 81%
    01:00 +14°C° 0 mm 0 mps 665 mmHg 83%
    02:00 +13°C° 0 mm 0 mps 666 mmHg 84%
    03:00 +13°C° 0 mm 0 mps 666 mmHg 85%
    04:00 +13°C° 0 mm 0 mps 666 mmHg 85%
    05:00 +13°C° 0 mm 0 mps 666 mmHg 85%
    06:00 +13°C° 0 mm 1 mps 667 mmHg 86%
    07:00 +15°C° 0 mm 1 mps 667 mmHg 79%
    08:00 +16°C° 0 mm 1 mps 668 mmHg 72%
    09:00 +19°C° 0 mm 1 mps 669 mmHg 64%
    10:00 +20°C° 0 mm 1 mps 669 mmHg 58%
    11:00 +21°C° 0 mm 1 mps 670 mmHg 51%
    12:00 +22°C° 0 mm 1 mps 670 mmHg 44%
    13:00 +22°C° 0 mm 1 mps 670 mmHg 42%
    14:00 +23°C° 0 mm 1 mps 670 mmHg 41%
    15:00 +23°C° 0 mm 2 mps 670 mmHg 39%
    16:00 +22°C° 0 mm 1 mps 671 mmHg 44%
    17:00 +21°C° 0 mm 1 mps 671 mmHg 49%
    18:00 +20°C° 0 mm 1 mps 671 mmHg 54%
    19:00 +20°C° 0 mm 1 mps 671 mmHg 57%
    20:00 +19°C° 0 mm 1 mps 671 mmHg 60%
    21:00 +19°C° 0 mm 1 mps 672 mmHg 63%
    22:00 +18°C° 0 mm 1 mps 672 mmHg 65%
    23:00 +18°C° 0 mm 1 mps 672 mmHg 68%

    20 Octubre, Sábado

    Tiempo Temperatura Precipitaciones Viento Presión Humedad
    00:00 +16°C° 0 mm 1 mps 671 mmHg 70%
    01:00 +16°C° 0 mm 1 mps 671 mmHg 70%
    02:00 +16°C° 0 mm 1 mps 671 mmHg 71%
    03:00 +16°C° 0 mm 1 mps 671 mmHg 71%
    04:00 +15°C° 0 mm 1 mps 671 mmHg 71%
    05:00 +15°C° 0 mm 1 mps 672 mmHg 71%
    06:00 +15°C° 0 mm 1 mps 672 mmHg 71%
    07:00 +18°C° 0 mm 1 mps 672 mmHg 64%
    08:00 +19°C° 0 mm 1 mps 673 mmHg 57%
    09:00 +21°C° 0 mm 1 mps 674 mmHg 49%
    10:00 +21°C° 0 mm 2 mps 674 mmHg 46%
    11:00 +23°C° 0 mm 2 mps 674 mmHg 43%
    12:00 +24°C° 0 mm 2 mps 674 mmHg 39%
    13:00 +24°C° 0 mm 2 mps 674 mmHg 39%
    14:00 +24°C° 0 mm 2 mps 674 mmHg 38%
    15:00 +24°C° 0 mm 2 mps 673 mmHg 37%
    16:00 +23°C° 0 mm 2 mps 673 mmHg 42%
    17:00 +21°C° 0 mm 2 mps 673 mmHg 47%
    18:00 +20°C° 0 mm 2 mps 673 mmHg 51%
    19:00 +20°C° 0 mm 2 mps 673 mmHg 54%
    20:00 +19°C° 0 mm 2 mps 673 mmHg 58%
    21:00 +18°C° 0 mm 2 mps 674 mmHg 61%
    22:00 +19°C° 0 mm 1 mps 673 mmHg 63%
    23:00 +19°C° 0 mm 1 mps 673 mmHg 66%

    21 Octubre, Domingo

    Tiempo Temperatura Precipitaciones Viento Presión Humedad
    00:00 +18°C° 0 mm 1 mps 673 mmHg 68%
    01:00 +18°C° 0 mm 1 mps 673 mmHg 70%
    02:00 +16°C° 0 mm 1 mps 672 mmHg 72%
    03:00 +15°C° 0 mm 0 mps 672 mmHg 74%
    04:00 +15°C° 0 mm 0 mps 672 mmHg 75%
    05:00 +14°C° 0 mm 0 mps 672 mmHg 76%
    06:00 +14°C° 0 mm 0 mps 672 mmHg 77%
    07:00 +16°C° 0 mm 0 mps 673 mmHg 70%
    08:00 +17°C° 0 mm 0 mps 674 mmHg 62%
    09:00 +21°C° 0 mm 1 mps 674 mmHg 55%
    10:00 +22°C° 0 mm 1 mps 674 mmHg 52%
    11:00 +22°C° 0 mm 1 mps 674 mmHg 48%
    12:00 +23°C° 0 mm 1 mps 674 mmHg 44%
    13:00 +23°C° 0 mm 1 mps 674 mmHg 43%
    14:00 +24°C° 0 mm 2 mps 674 mmHg 42%
    15:00 +24°C° 0 mm 2 mps 674 mmHg 41%
    16:00 +23°C° 0 mm 1 mps 674 mmHg 45%
    17:00 +22°C° 0 mm 1 mps 674 mmHg 49%
    18:00 +21°C° 0 mm 1 mps 674 mmHg 53%
    19:00 +21°C° 0 mm 1 mps 674 mmHg 56%
    20:00 +20°C° 0 mm 1 mps 674 mmHg 59%
    21:00 +20°C° 0 mm 1 mps 674 mmHg 62%
    22:00 +19°C° 0 mm 1 mps 673 mmHg 64%
    23:00 +17°C° 0 mm 0 mps 673 mmHg 66%
    Mostrar más